www.pogodaiklimat.ru

Погода и климат >> Архив погоды >> Индия >> Churu


ПОГОДА в Churu

  • Прогноз погоды в Churu
  • Монитор погоды в Churu
  • Климат города

АРХИВ ПОГОДЫ в Churu

Время (UTC), дата Ветер
(напр.,м/с)
 
Видим.   Явления Облачность Т
(С)
Тd
(С)
f
(%)
Тe
(С)
Тes
(С)
Комфортность P
(гПа)
Po
(гПа)
Тmin
(С)
Tmax
(С)
R
(мм)
R24
(мм)
S
(см)
03 14.10 штиль 0 4000 м ясно +24.0 +6.7 33 +24 +28 комфорт 1006.8 1007.0 +18.3 +40.4
06 14.10 З 1 4000 м ясно +37.0 +9.4 19 +36 +50 очень
жарко
1005.6 1006.0
09 14.10 З 1 4000 м ясно +40.0 +6.1 13 +37 +49 очень
жарко
1002.6 1003.0
12 14.10 штиль 0 4000 м ясно +37.4 +5.8 14 +35 +35 очень
жарко
1001.6 1002.0 +41.1
15 14.10 штиль 0 4000 м ясно +26.6 +8.6 32 +27 +27 жарко 1003.9 1004.0
18 14.10 штиль 0 4000 м ясно +24.2 +10.1 41 +25 +25 комфорт 1004.6 1005.0
21 14.10 штиль 0 4000 м ясно +22.2 +10.6 48 +24 +24 комфорт 1004.7 1005.0
00 15.10 штиль 0 4000 м ясно +18.6 +7.1 47 +19 +19 1005.6 1006.0
03 15.10 штиль 0 4000 м ясно +23.6 +6.4 33 +27 +31 жарко 1006.9 1007.0 +16.2 +41.1
06 15.10 З 1 4000 м ясно +32.8 +5.2 18 +31 +31 жарко 1005.4 1005.0
09 15.10 СВ 1 4000 м ясно +39.6 0.0 8 +36 +48 очень
жарко
1002.8 1003.0
12 15.10 штиль 0 4000 м ясно +37.6 +3.3 12 +34 +35 очень
жарко
1002.4 1002.0 +41.7
15 15.10 штиль 0 4000 м ясно +27.4 +14.9 46 +30 +30 жарко 1004.2 1004.0
18 15.10 штиль 0 4000 м ясно +23.6 +13.0 51 +24 +24 комфорт 1005.2 1005.0
21 15.10 штиль 0 4000 м ясно +21.6 +6.8 38 +22 +22 комфорт 1005.3 1005.0
00 16.10 штиль 0 4000 м ясно +18.6 +5.6 42 +19 +19 1006.3 1006.0
03 16.10 штиль 0 4000 м ясно +23.4 +6.6 34 +24 +28 комфорт 1007.8 1008.0 +16.4 +41.7
06 16.10 С 1 4000 м ясно +37.6 +8.2 17 +36 +50 очень
жарко
1007.0 1007.0
09 16.10 штиль 0 4000 м ясно +40.6 +2.9 10 +37 +50 очень
жарко
1004.0 1004.0
12 16.10 штиль 0 4000 м ясно +36.0 +4.1 14 +33 +34 жарко 1004.0 1004.0 +41.0
15 16.10 С 1 4000 м ясно +27.2 +8.5 31 +27 +27 жарко 1005.0 1005.0
18 16.10 штиль 0 4000 м ясно +25.6 +13.4 47 +28 +28 жарко 1007.1 1007.0
21 16.10 штиль 0 4000 м ясно +23.6 +14.1 55 +26 +26 жарко 1006.9 1007.0
00 17.10 штиль 0 4000 м ясно +18.4 +11.1 62 +19 +19 1008.1 1008.0
03 17.10 штиль 0 4000 м ясно +22.0 +7.4 39 +23 +26 комфорт 1010.1 1010.0 +16.0 +41.0
06 17.10 ЮВ 1 4000 м ясно +34.0 +13.2 28 +34 +49 очень
жарко
1009.2 1009.0
09 17.10 ЮВ 1 4000 м ясно +37.0 +7.6 17 +35 +46 очень
жарко
1006.1 1006.0
12 17.10 штиль 0 4000 м ясно +34.2 +11.6 25 +34 +34 очень
жарко
1005.7 1006.0 +38.8
15 17.10 штиль 0 4000 м ясно +25.4 +11.8 43 +27 +27 жарко 1008.0 1008.0
18 17.10 штиль 0 4000 м ясно +23.2 +10.1 43 +25 +25 комфорт 1008.2 1008.0
21 17.10 штиль 0 4000 м ясно +21.2 +9.7 48 +23 +23 комфорт 1008.2 1008.0
00 18.10 штиль 0 4000 м ясно +17.8 +9.0 56 +18 +18 1009.4 1009.0
03 18.10 штиль 0 4000 м ясно +22.2 +11.1 49 +24 +28 комфорт 1011.3 1011.0 +15.7 +38.8
06 18.10 СВ 1 4000 м ясно +34.6 +11.7 25 +34 +50 очень
жарко
1010.1 1010.0
09 18.10 СВ 1 4000 м ясно +37.8 +6.7 15 +35 +46 очень
жарко
1006.7 1007.0
12 18.10 штиль 0 4000 м ясно +34.4 +9.8 22 +33 +34 жарко 1006.0 1006.0 +38.6
15 18.10 штиль 0 4000 м ясно +26.0 +9.8 36 +27 +27 жарко 1008.6 1009.0
18 18.10 штиль 0 4000 м ясно +22.4 +10.9 48 +24 +24 комфорт 1008.5 1009.0
21 18.10 штиль 0 4000 м ясно +19.8 +12.3 62 +21 +21 комфорт 1008.2 1008.0
00 19.10 штиль 0 4000 м ясно +17.4 +10.3 63 +17 +17 1010.1 1010.0
03 19.10 штиль 0 4000 м ясно +20.8 +12.3 58 +23 +26 комфорт 1011.4 1011.0 +15.8 +38.6
06 19.10 СВ 1 4000 м ясно +33.6 +11.6 26 +33 +48 жарко 1009.8 1010.0
09 19.10 штиль 0 4000 м ясно +38.2 +6.2 14 +36 +48 очень
жарко
1005.9 1006.0
12 19.10 штиль 0 4000 м ясно +34.2 +11.6 25 +34 +34 очень
жарко
1005.7 1006.0 +39.2
15 19.10 штиль 0 4000 м ясно +25.6 +8.6 34 +26 +26 жарко 1007.9 1008.0
18 19.10 штиль 0 4000 м ясно +21.8 +9.1 44 +23 +23 комфорт 1008.9 1009.0
21 19.10 штиль 0 4000 м ясно +19.4 +7.7 47 +20 +20 1008.9 1009.0
00 20.10 штиль 0 4000 м ясно +17.8 +9.9 60 +18 +18 1008.7 1009.0
03 20.10 штиль 0 4000 м ясно +22.4 +11.8 51 +25 +28 комфорт 1009.8 1010.0 +16.1 +39.2
06 20.10 В 1 4000 м ясно +37.0 +14.2 26 +38 +52 опасность
солнечного
удара
1008.3 1008.0
09 20.10 штиль 0 4000 м ясно +38.6 +11.3 20 +38 +50 очень
жарко
1005.5 1006.0
12 20.10 штиль 0 4000 м ясно +34.6 +11.7 25 +34 +35 очень
жарко
1005.2 1005.0 +39.5
15 20.10 штиль 0 4000 м ясно +26.6 +13.0 43 +28 +28 жарко 1007.5 1008.0
18 20.10 штиль 0 4000 м ясно +22.6 +9.3 43 +24 +24 комфорт 1008.6 1009.0
21 20.10 штиль 0 4000 м ясно +20.4 +9.1 48 +21 +21 комфорт 1008.5 1009.0
00 21.10 штиль 0 4000 м ясно +18.8 +9.8 56 +19 +19 1008.4 1008.0

 

Местоположение метеостанции Churu (Rajasthan, Индия): широта 28.25 долгота 74.92 высота над уровнем моря 291 м.

В архиве по умолчанию представлена погода в Churu за последнюю неделю. Архивные данные за месяц целиком и за предыдущие месяцы, начиная с января 2011 года, Вы можете получить, выбрав интересующий диапазон дат из раскрывающегося списка и нажав кнопку "Ввод!".

Внимание! Время в таблицах - всемирное. Для получения местного времени необходимо прибавить поправку, которая в Churu равна 5.5 ч.

Смотрите также архив погоды в соседних городах и на ближайших метеорологических станциях:

Погода в Pilani (Rajasthan, Индия) (65 км)
Погода в Hissar (Haryana, Индия) (129 км)
Погода в Bikaner (Rajasthan, Индия) (161 км)
Погода в Jaipur (Rajasthan, Индия) (181 км)
Погода в Ajmer (Rajasthan, Индия) (202 км)
Погода в Sri Ganganagar (Rajasthan, Индия) (212 км)
Погода в New Delhi Aya Nagar (Delhi, Индия) (218 км)
Погода в New Delhi Airport (Delhi, Индия) (218 км)
Погода в New Delhi (Delhi, Индия) (226 км)
Погода в Ridge (Delhi, Индия) (235 км)

Пояснения к столбцам:

Ветер - указаны скорость ветра в м/с - средняя за 10 мин, порывы в срок и между сроками (в фигурных скобках) и направление, откуда дует ветер: С - северный, СВ - северо-восточный, В - восточный, ЮВ - юго-восточный, Ю - южный, ЮЗ - юго-западный, З - западный, СЗ - северо-западный.
Видимость - горизонтальная дальность видимости в метрах или километрах. При видимости от 1 до 10 км при отсутствии осадков обычно наблюдается дымка, при ухудшении видимости до 1 км и менее - туман. В сухую погоду видимость может ухудшаться дымом, пылью или мглою.
Явления - указаны атмосферные явления, наблюдавшиеся в срок или в последний час перед сроком; фигурными скобками обозначены явления, наблюдавшиеся между сроками (за 1-3 часа до срока); квадратными скобками обозначены град или гололедные отложения с указанием их диаметра в мм.
Облачность - указаны через наклонную черту общая и нижняя облачность в баллах и высота нижней границы облаков в метрах; квадратными скобками обозначены формы облаков: Ci - перистые, Cs - перисто-слоистые, Cc - перисто-кучевые, Ac - высококучевые, As - высокослоистые, Sc - слоисто-кучевые, Ns - слоисто-дождевые, Cu - кучевые, Cb - кучево-дождевые. Подробнее классификацию облаков см. в Атласе облаков (PDF).
T - Температура воздуха - температура, измеренная на высоте 2 м над землей.
Td - Температура точки росы - температура, при понижении до которой содержащийся в воздухе водяной пар достигнет насыщения.
f - Относительная влажность воздуха - влажноcть воздуха, измеренная на высоте 2 м над землей.
Te - Эффективная температура - температура, которую ощущает одетый по сезону человек в тени. Характеристика душности погоды. При расчете учитывается влияние влажности воздуха и скорости ветра на теплоощущения человека.
Tes - Эффективная температура на солнце - температура, которую ощущает человек, с поправкой на солнечный нагрев. Характеристика знойности погоды. Зависит от высоты солнца над горизонтом, облачности и скорости ветра. Ночью, в пасмурную погоду, а также при ветре 12 м/с и более поправка равна нулю.
P - Атмосферное давление - приведенное к уровню моря атмосферное давление.
Po - Атмосферное давление - измеренное на уровне метеостанции атмосферное давление.
Tmin - Минимальная температура - минимум температуры воздуха на высоте 2 м над землей.
Tmax - Максимальная температура - максимум температуры воздуха на высоте 2 м над землей.
R - Количество осадков - Количество выпавших осадков за период времени, мм. При наведении курсора мыши на число - период времени, за который выпало указанное количество осадков.
R24 - Количество осадков - Количество выпавших осадков за 24 часа, мм.
S - Снежный покров - Высота снежного покрова, см. При наведении курсора мыши на число - состояние снежного покрова и степень покрытия местности в баллах.